Weather History for Weslaco, TX

Change the Weather History Date:

Thursday, April 11, 2013

  Actual Average (KMFE) Record (KMFE)
Temperature  
Mean Temperature 66 °F 76 °F  
Max Temperature 78 °F 87 °F 101 °F (1963)
Min Temperature 54 °F 65 °F 44 °F (1973)
Degree Days  
Heating Degree Days 0 0  
Month to date heating degree days 3  
Since 1 July heating degree days 574  
Cooling Degree Days 1 11  
Month to date cooling degree days 115  
Year to date cooling degree days 492  
Growing Degree Days 16 (Base 50)    
Moisture  
Dew Point 45 °F    
Average Humidity 53    
Maximum Humidity 77    
Minimum Humidity 24    
Precipitation  
Precipitation 0.00 in 0.04 in 0.44 in (1970)
Month to date precipitation 0.35  
Year to date precipitation 3.54  
Sea Level Pressure  
Sea Level Pressure 29.86 in    
Wind  
Wind Speed 11 mph (NE)    
Max Wind Speed 16 mph    
Max Gust Speed 24 mph    
Visibility 10 miles    
Events      
T = Trace of Precipitation, MM = Missing Value Source: NWS Daily Summary

Daily Weather History Graph

Daily Weather History Graph

Search for Another Location

Airport:

Trip Planner

Search our weather history database for the weather conditions in past years. The results will help you decide how hot, cold, wet, or windy it might be!

Date:

Astronomy

Apr. 11, 2013 Rise Set
Actual Time 7:12 AM CDT 7:53 PM CDT
Civil Twilight 6:48 AM CDT 8:17 PM CDT
Nautical Twilight 6:21 AM CDT 8:44 PM CDT
Astronomical Twilight 5:53 AM CDT 9:12 PM CDT
Moon 7:53 AM CDT (4/11) 9:18 PM CDT (4/11)
Length of Visible Light 13h 28m
Length of Day
12h 41m
New Moon, 2% of the Moon is Illuminated
Apr 11
New Moon
Apr 18
First Quarter
Apr 25
Full
May 2
Last Quarter
May 9
New

Hourly Weather History & Observations

Time (CDT) Temp. Dew Point Humidity Pressure Visibility Wind Dir Wind Speed Gust Speed Precip Events Conditions
12:15 AM 61.7 °F 52.2 °F 71% 29.81 in 10.0 mi North 12.7 mph 20.7 mph N/A   Overcast
12:35 AM 61.7 °F 51.8 °F 70% 29.82 in 10.0 mi North 13.8 mph 19.6 mph N/A   Overcast
12:55 AM 61.2 °F 51.8 °F 71% 29.83 in 10.0 mi North 11.5 mph - N/A   Overcast
1:15 AM 60.1 °F 52.0 °F 75% 29.83 in 10.0 mi North 11.5 mph 21.9 mph N/A   Overcast
1:35 AM 58.8 °F 51.8 °F 77% 29.84 in 10.0 mi NNW 12.7 mph - N/A   Overcast
1:55 AM 58.8 °F 51.6 °F 77% 29.84 in 10.0 mi North 11.5 mph 21.9 mph N/A   Overcast
2:15 AM 59.2 °F 51.3 °F 75% 29.84 in 10.0 mi North 10.4 mph 16.1 mph N/A   Overcast
2:35 AM 59.9 °F 51.1 °F 73% 29.83 in 10.0 mi North 8.1 mph - N/A   Overcast
2:55 AM 59.9 °F 50.9 °F 72% 29.83 in 10.0 mi NNW 11.5 mph - N/A   Overcast
3:15 AM 59.0 °F 50.0 °F 72% 29.83 in 10.0 mi North 12.7 mph 20.7 mph N/A   Overcast
3:35 AM 59.0 °F 49.1 °F 70% 29.83 in 10.0 mi North 15.0 mph 20.7 mph N/A   Overcast
3:55 AM 59.0 °F 49.1 °F 70% 29.84 in 10.0 mi North 16.1 mph 23.0 mph N/A   Overcast
4:15 AM 58.1 °F 49.1 °F 72% 29.85 in 10.0 mi North 16.1 mph 24.2 mph N/A   Overcast
4:35 AM 58.1 °F 47.1 °F 67% 29.84 in 10.0 mi North 15.0 mph 24.2 mph N/A   Overcast
4:55 AM 57.9 °F 47.5 °F 68% 29.86 in 10.0 mi North 12.7 mph 21.9 mph N/A   Overcast
5:35 AM 57.2 °F 47.8 °F 71% 29.86 in 10.0 mi NNE 10.4 mph 19.6 mph N/A   Overcast
5:55 AM 57.0 °F 47.5 °F 70% 29.86 in 10.0 mi NNE 11.5 mph - N/A   Overcast
6:15 AM 56.5 °F 46.9 °F 70% 29.88 in 10.0 mi North 9.2 mph 16.1 mph N/A   Overcast
6:35 AM 56.3 °F 46.4 °F 69% 29.89 in 10.0 mi North 9.2 mph 16.1 mph N/A   Unknown
6:55 AM 55.2 °F 45.1 °F 69% 29.89 in 10.0 mi NNE 15.0 mph 23.0 mph N/A   Unknown
7:15 AM 54.9 °F 44.6 °F 68% 29.91 in 10.0 mi North 9.2 mph 20.7 mph N/A   Unknown
7:35 AM 54.1 °F 42.1 °F 64% 29.91 in 10.0 mi NNE 16.1 mph 24.2 mph N/A   Unknown
7:55 AM 54.0 °F 42.3 °F 65% 29.92 in 10.0 mi NNE 10.4 mph 18.4 mph N/A   Unknown
8:15 AM 54.7 °F 42.8 °F 64% 29.92 in 10.0 mi North 8.1 mph - N/A   Unknown
8:35 AM 55.0 °F 42.3 °F 62% 29.93 in 10.0 mi North 10.4 mph - N/A   Clear
8:55 AM 55.9 °F 42.4 °F 61% 29.94 in 10.0 mi North 9.2 mph 17.3 mph N/A   Clear
9:15 AM 57.7 °F 42.6 °F 57% 29.94 in 10.0 mi North 10.4 mph 16.1 mph N/A   Clear
9:35 AM 58.8 °F 43.2 °F 56% 29.95 in 10.0 mi North 10.4 mph 17.3 mph N/A   Clear
9:55 AM 59.5 °F 42.6 °F 54% 29.94 in 10.0 mi NNW 10.4 mph - N/A   Clear
10:15 AM 60.8 °F 42.8 °F 52% 29.95 in 10.0 mi North 9.2 mph - N/A   Clear
10:35 AM 61.7 °F 42.8 °F 50% 29.96 in 10.0 mi North 11.5 mph 18.4 mph N/A   Clear
10:55 AM 63.1 °F 43.2 °F 48% 29.96 in 10.0 mi NNE 12.7 mph 18.4 mph N/A   Clear
11:15 AM 64.2 °F 43.0 °F 46% 29.96 in 10.0 mi North 11.5 mph 19.6 mph N/A   Clear
11:35 AM 64.9 °F 42.8 °F 45% 29.96 in 10.0 mi North 11.5 mph 17.3 mph N/A   Clear
12:15 PM 66.9 °F 42.3 °F 41% 29.94 in 10.0 mi NNE 13.8 mph 18.4 mph N/A   Clear
12:35 PM 67.8 °F 42.1 °F 39% 29.93 in 10.0 mi NNE 13.8 mph 18.4 mph N/A   Clear
12:55 PM 68.4 °F 41.4 °F 37% 29.93 in 10.0 mi NNE 12.7 mph 17.3 mph N/A   Clear
1:15 PM 70.0 °F 40.5 °F 34% 29.91 in 10.0 mi NNE 10.4 mph 16.1 mph N/A   Clear
1:35 PM 71.1 °F 40.5 °F 33% 29.89 in 10.0 mi NNE 10.4 mph 16.1 mph N/A   Clear
1:55 PM 72.1 °F 40.5 °F 32% 29.88 in 10.0 mi North 9.2 mph - N/A   Clear
2:15 PM 73.8 °F 40.1 °F 30% 29.87 in 10.0 mi NE 12.7 mph 17.3 mph N/A   Clear
2:35 PM 75.0 °F 40.1 °F 28% 29.86 in 10.0 mi NE 10.4 mph - N/A   Clear
2:55 PM 75.4 °F 40.1 °F 28% 29.85 in 10.0 mi NE 10.4 mph - N/A   Clear
3:15 PM 76.3 °F 39.4 °F 26% 29.84 in 10.0 mi NE 5.8 mph 9.2 mph N/A   Clear
3:35 PM 77.5 °F 40.3 °F 26% 29.83 in 10.0 mi NE 9.2 mph - N/A   Clear
3:55 PM 77.9 °F 39.2 °F 25% 29.81 in 10.0 mi East 8.1 mph 17.3 mph N/A   Clear
4:15 PM 78.3 °F 39.4 °F 25% 29.80 in 10.0 mi East 9.2 mph - N/A   Clear
4:35 PM 78.1 °F 38.3 °F 24% 29.79 in 10.0 mi NE 12.7 mph - N/A   Clear
4:55 PM 77.4 °F 39.2 °F 25% 29.79 in 10.0 mi East 12.7 mph 16.1 mph N/A   Clear
5:15 PM 77.2 °F 39.4 °F 26% 29.79 in 10.0 mi East 8.1 mph - N/A   Clear
5:35 PM 76.3 °F 39.9 °F 27% 29.79 in 10.0 mi East 11.5 mph 17.3 mph N/A   Clear
5:55 PM 75.6 °F 40.1 °F 28% 29.79 in 10.0 mi ENE 11.5 mph 17.3 mph N/A   Clear
6:15 PM 73.9 °F 39.9 °F 29% 29.79 in 10.0 mi East 9.2 mph 18.4 mph N/A   Clear
6:35 PM 72.5 °F 40.5 °F 31% 29.80 in 10.0 mi East 10.4 mph 16.1 mph N/A   Clear
6:55 PM 71.2 °F 41.0 °F 33% 29.80 in 10.0 mi East 9.2 mph 16.1 mph N/A   Clear
7:15 PM 69.8 °F 41.2 °F 35% 29.80 in 10.0 mi East 11.5 mph - N/A   Clear
7:35 PM 68.4 °F 41.9 °F 38% 29.81 in 10.0 mi East 11.5 mph 16.1 mph N/A   Clear
7:55 PM 66.9 °F 43.9 °F 43% 29.81 in 10.0 mi East 8.1 mph - N/A   Clear
8:15 PM 65.7 °F 44.8 °F 47% 29.82 in 10.0 mi East 6.9 mph - N/A   Clear
8:35 PM 64.8 °F 45.7 °F 50% 29.82 in 10.0 mi East 5.8 mph - N/A   Clear
8:55 PM 63.9 °F 46.4 °F 53% 29.83 in 10.0 mi East 5.8 mph - N/A   Clear
9:15 PM 63.1 °F 47.3 °F 56% 29.84 in 10.0 mi ESE 5.8 mph - N/A   Clear
9:35 PM 62.6 °F 48.7 °F 60% 29.85 in 10.0 mi ESE 6.9 mph - N/A   Clear
9:55 PM 61.9 °F 49.8 °F 65% 29.86 in 10.0 mi ESE 5.8 mph - N/A   Clear
10:15 PM 61.2 °F 50.2 °F 67% 29.87 in 10.0 mi SE 4.6 mph - N/A   Clear
10:35 PM 60.8 °F 50.4 °F 68% 29.88 in 10.0 mi SE 3.5 mph - N/A   Clear
10:55 PM 59.9 °F 50.5 °F 71% 29.89 in 10.0 mi SSE 3.5 mph - N/A   Clear
11:15 PM 59.9 °F 50.5 °F 71% 29.89 in 10.0 mi Calm Calm - N/A   Clear
11:35 PM 59.4 °F 50.7 °F 73% 29.90 in 10.0 mi SE 3.5 mph - N/A   Clear
11:55 PM 59.4 °F 50.9 °F 74% 29.90 in 10.0 mi SE 3.5 mph - N/A   Clear